Demopolis Municipal Airport, AL

1:17 AM CDT on June 29, 2017 (GMT -0500)
Demopolis Municipal Airport

Weather History for KDYA - February, 2014

Change the Weather History Date:

Monday, February 10, 2014

  Actual Average (KNMM) Record (KNMM)
Temperature  
Mean Temperature 44 °F -  
Max Temperature 52 °F 58 °F 79 °F (1999)
Min Temperature 36 °F 39 °F 19 °F (2011)
Degree Days  
Heating Degree Days 20    
Moisture  
Dew Point 41 °F    
Average Humidity 85    
Maximum Humidity 100    
Minimum Humidity 60    
Precipitation  
Precipitation 0.00 in - - ()
Sea Level Pressure  
Sea Level Pressure 30.14 in    
Wind  
Wind Speed 1 mph (North)    
Max Wind Speed 9 mph    
Max Gust Speed -    
Visibility 8 miles    
Events Rain    
Averages and records for this station are not official NWS values.
T = Trace of Precipitation, MM = Missing Value Source: NWS Daily Summary

Daily Weather History Graph

Daily Weather History Graph

Search for Another Location

Airport or City:

Trip Planner

Search our weather history database for the weather conditions in past years. The results will help you decide how hot, cold, wet, or windy it might be!

Date:

Astronomy

Feb. 10, 2014 Rise Set
Actual Time 6:39 AM CST 5:33 PM CST
Civil Twilight 6:13 AM CST 5:58 PM CST
Nautical Twilight 5:44 AM CST 6:27 PM CST
Astronomical Twilight 5:16 AM CST 6:56 PM CST
Moon 2:07 PM CST (2/10) 3:26 AM CST (2/10)
Length of Visible Light 11h 44m
Length of Day
10h 54m
Waxing Gibbous, 85% of the Moon is Illuminated
Feb 10
Waxing Gibbous
Feb 14
Full
Feb 22
Last Quarter
Mar 1
New
Mar 8
First Quarter

Hourly Weather History & Observations

Time (CST) Temp. Windchill Dew Point Humidity Pressure Visibility Wind Dir Wind Speed Gust Speed Precip Events Conditions
12:15 AM 45.9 °F - 45.9 °F 100% 30.09 in 10.0 mi Calm Calm - N/A   Mostly Cloudy
12:35 AM 45.7 °F - - N/A% 30.08 in 10.0 mi Calm Calm - N/A   Overcast
12:55 AM 45.5 °F - 45.5 °F 100% 30.08 in 10.0 mi Calm Calm - N/A   Overcast
1:15 AM 47.3 °F - 47.3 °F 100% 30.08 in 10.0 mi Calm Calm - N/A   Overcast
1:35 AM 47.1 °F - 47.1 °F 100% 30.09 in 10.0 mi Calm Calm - N/A   Overcast
1:55 AM 46.6 °F - 46.6 °F 100% 30.09 in 10.0 mi Calm Calm - N/A   Overcast
2:15 AM 46.6 °F - 46.6 °F 100% 30.09 in 10.0 mi Calm Calm - N/A   Overcast
2:35 AM 46.0 °F - 46.0 °F 100% 30.09 in 10.0 mi Calm Calm - N/A   Overcast
2:55 AM 45.7 °F - 45.7 °F 100% 30.09 in 10.0 mi Calm Calm - N/A   Overcast
3:15 AM 45.7 °F - 45.7 °F 100% 30.09 in 10.0 mi Calm Calm - N/A   Overcast
3:35 AM 45.7 °F - 45.7 °F 100% 30.09 in 10.0 mi Calm Calm - N/A   Overcast
3:55 AM 45.5 °F - 45.5 °F 100% 30.08 in 10.0 mi Calm Calm - N/A   Overcast
4:15 AM 45.5 °F - 45.5 °F 100% 30.09 in 10.0 mi Calm Calm - N/A   Overcast
4:35 AM 45.5 °F - 45.5 °F 100% 30.09 in 10.0 mi Calm Calm - N/A   Overcast
4:55 AM 45.3 °F - 45.3 °F 100% 30.10 in 10.0 mi Calm Calm - N/A   Overcast
5:15 AM 45.1 °F - 45.1 °F 100% 30.11 in 10.0 mi Calm Calm - N/A   Overcast
5:35 AM 45.0 °F - 42.3 °F 90% 30.11 in 10.0 mi Calm Calm - N/A   Overcast
5:55 AM 45.1 °F - 38.8 °F 79% 30.12 in 10.0 mi Calm Calm - N/A   Overcast
6:15 AM 44.8 °F 43.3 °F 38.3 °F 78% 30.13 in 10.0 mi NW 3.5 mph - N/A   Overcast
6:35 AM 44.6 °F - 38.3 °F 79% 30.13 in 10.0 mi Calm Calm - N/A   Overcast
6:55 AM 44.2 °F - 37.9 °F 79% 30.13 in 10.0 mi Calm Calm - N/A   Overcast
7:15 AM 44.1 °F 40.8 °F 37.8 °F 78% 30.15 in 10.0 mi NNW 5.8 mph - N/A   Overcast
7:35 AM 44.2 °F - 38.1 °F 79% 30.15 in 10.0 mi Calm Calm - N/A   Overcast
7:55 AM 44.6 °F 40.2 °F 37.9 °F 77% 30.17 in 10.0 mi NNW 8.1 mph - N/A   Overcast
8:15 AM 44.6 °F 40.2 °F 37.8 °F 77% 30.17 in 10.0 mi NW 8.1 mph - N/A   Overcast
8:35 AM 45.1 °F - 37.9 °F 76% 30.18 in 10.0 mi Calm Calm - N/A   Overcast
8:55 AM 45.5 °F 42.5 °F 37.8 °F 74% 30.18 in 10.0 mi NNW 5.8 mph - N/A   Overcast
9:15 AM 45.9 °F - 37.9 °F 74% 30.19 in 10.0 mi Calm Calm - N/A   Overcast
9:35 AM 46.0 °F - 37.6 °F 72% 30.19 in 10.0 mi Calm Calm - N/A   Overcast
9:55 AM 46.8 °F - 37.8 °F 71% 30.20 in 10.0 mi Calm Calm - N/A   Overcast
10:15 AM 47.1 °F - 38.1 °F 71% 30.18 in 10.0 mi Calm Calm - N/A   Overcast
10:35 AM 48.9 °F - 38.3 °F 67% 30.18 in 10.0 mi North 6.9 mph - N/A   Overcast
10:55 AM 49.3 °F - 38.5 °F 66% 30.18 in 10.0 mi Calm Calm - N/A   Overcast
11:15 AM 50.0 °F - 38.5 °F 65% 30.17 in 10.0 mi Calm Calm - N/A   Mostly Cloudy
11:35 AM 51.1 °F - 38.5 °F 62% 30.16 in 10.0 mi Calm Calm - N/A   Mostly Cloudy
11:55 AM 52.0 °F - 38.7 °F 60% 30.16 in 10.0 mi Calm Calm - N/A   Overcast
12:15 PM 50.4 °F - 38.5 °F 64% 30.14 in 10.0 mi Calm Calm - N/A   Mostly Cloudy
12:35 PM 50.0 °F - 38.3 °F 64% 30.14 in 10.0 mi Calm Calm - N/A   Overcast
12:55 PM 50.2 °F - 38.5 °F 64% 30.13 in 10.0 mi Calm Calm - N/A   Overcast
1:15 PM 49.5 °F - 38.3 °F 65% 30.13 in 10.0 mi NW 3.5 mph - N/A   Mostly Cloudy
1:35 PM 49.1 °F - 38.5 °F 67% 30.13 in 10.0 mi Calm Calm - N/A   Overcast
1:55 PM 48.2 °F - 39.2 °F 71% 30.12 in 7.0 mi Calm Calm - N/A Rain Light Rain
2:15 PM 45.7 °F - 45.7 °F 100% 30.13 in 3.0 mi Calm Calm - N/A   Drizzle
2:35 PM 45.0 °F - 45.0 °F 100% 30.13 in 2.0 mi Calm Calm - N/A   Heavy Drizzle
2:55 PM 44.4 °F - 44.4 °F 100% 30.13 in 3.0 mi Calm Calm - N/A   Drizzle
3:15 PM 44.2 °F - - N/A% 30.13 in 4.0 mi Calm Calm - N/A   Light Drizzle
3:35 PM 43.7 °F - - N/A% 30.14 in 3.0 mi Calm Calm - N/A Rain Light Rain
3:55 PM 43.0 °F 39.5 °F - N/A% 30.15 in 4.0 mi NNW 5.8 mph - N/A   Drizzle
4:15 PM 42.8 °F - - N/A% 30.15 in 5.0 mi Calm Calm - N/A   Drizzle
4:35 PM 42.8 °F 40.1 °F - N/A% 30.14 in 7.0 mi North 4.6 mph - N/A   Light Drizzle
4:55 PM 42.3 °F 37.3 °F - N/A% 30.15 in 7.0 mi North 8.1 mph - N/A Rain Light Rain
5:15 PM 41.5 °F 36.4 °F - N/A% 30.16 in 5.0 mi NNW 8.1 mph - N/A   Drizzle
5:35 PM 40.8 °F 35.0 °F - N/A% 30.16 in 4.0 mi North 9.2 mph - N/A Rain Rain
5:55 PM 39.9 °F 36.7 °F - N/A% 30.17 in 7.0 mi North 4.6 mph - N/A Rain Light Rain
6:15 PM 39.6 °F 34.0 °F - N/A% 30.18 in 7.0 mi NNW 8.1 mph - N/A Rain Light Rain
6:35 PM 39.4 °F 34.5 °F - N/A% 30.18 in 7.0 mi North 6.9 mph - N/A   Drizzle
6:55 PM 39.0 °F 32.8 °F - N/A% 30.18 in 7.0 mi North 9.2 mph - N/A Rain Rain
7:15 PM 38.5 °F 35.0 °F 38.5 °F 100% 30.18 in 7.0 mi North 4.6 mph - N/A   Light Drizzle
7:35 PM 38.5 °F 33.4 °F 38.5 °F 100% 30.18 in 10.0 mi North 6.9 mph - N/A   Overcast
7:55 PM 38.3 °F 32.5 °F 38.3 °F 100% 30.18 in 7.0 mi North 8.1 mph - N/A   Overcast
8:15 PM 38.3 °F 34.8 °F 38.3 °F 100% 30.17 in 7.0 mi North 4.6 mph - N/A   Overcast
8:35 PM 38.3 °F - 38.3 °F 100% 30.18 in 7.0 mi Calm Calm - N/A Rain Light Rain
8:55 PM 38.3 °F - - N/A% 30.19 in 5.0 mi Calm Calm - N/A Rain Light Rain
9:15 PM 38.3 °F 35.9 °F - N/A% 30.18 in 5.0 mi North 3.5 mph - N/A Rain Rain
9:35 PM 37.9 °F 33.5 °F - N/A% 30.18 in 5.0 mi North 5.8 mph - N/A Rain Rain
9:55 PM 37.9 °F - - N/A% 30.18 in 5.0 mi Calm Calm - N/A Rain Light Rain
10:15 PM 37.8 °F - - N/A% 30.17 in 5.0 mi Calm Calm - N/A Rain Rain
10:35 PM 37.8 °F - - N/A% 30.17 in 5.0 mi Calm Calm - N/A Rain Light Rain
10:55 PM 37.6 °F - - N/A% 30.17 in 5.0 mi Calm Calm - N/A   Heavy Drizzle
11:15 PM 37.0 °F 32.4 °F - N/A% 30.16 in 4.0 mi NNE 5.8 mph - N/A Rain Light Rain
11:35 PM 37.0 °F 32.4 °F - N/A% 30.16 in 4.0 mi North 5.8 mph - N/A Rain Light Rain
11:55 PM 36.9 °F 30.7 °F - N/A% 30.16 in 3.0 mi North 8.1 mph - N/A Rain Rain